EW9807 Weather Reports


Display with metric or nautical units.
time (UTC)temp
F
wind
direction
speed
MPH
gust
MPH
rain 1hr
in
rain 24hr
in
rain mn
in
humidity
%
barometer
mb
20260506073049 64 165 0.0 0.0 0.00 0.00 0.00 73 1013.5
20260506072047 64 188 0.0 2.0 0.00 0.00 0.00 73 1013.8
20260506071101 64 188 0.0 1.0 0.00 0.00 0.00 71 1014.0
20260506062052 66 188 0.0 2.0 0.00 0.00 0.00 65 1014.1
20260506061556 66 188 0.0 2.0 0.00 0.00 0.00 65 1014.1
20260506061047 66 188 0.0 3.0 0.00 0.00 0.00 64 1014.1
20260506060557 67 188 1.0 5.0 0.00 0.00 0.00 64 1014.1
20260506060107 67 190 2.0 5.0 0.00 0.00 0.00 63 1014.1
20260506051054 68 180 2.0 4.0 0.00 0.00 0.00 58 1013.7
20260506050545 68 200 2.0 4.0 0.00 0.00 0.00 57 1013.8
20260506050111 68 162 1.0 7.0 0.00 0.00 0.00 57 1013.8
20260506045046 68 182 0.0 4.0 0.00 0.00 0.00 56 1014.0
20260506044558 69 180 2.0 4.0 0.00 0.00 0.00 56 1014.2
20260506044047 69 169 0.0 4.0 0.00 0.00 0.00 55 1014.1
20260506043600 69 187 1.0 4.0 0.00 0.00 0.00 54 1014.1
20260506043051 69 175 1.0 4.0 0.00 0.00 0.00 54 1014.0
20260506042046 70 200 1.0 4.0 0.00 0.00 0.00 53 1013.9
20260506041559 70 84 1.0 4.0 0.00 0.00 0.00 52 1013.8
20260506041046 70 95 2.0 4.0 0.00 0.00 0.00 52 1013.7
20260506040557 69 125 1.0 4.0 0.00 0.00 0.00 52 1013.8
20260506040119 69 180 1.0 4.0 0.00 0.00 0.00 52 1013.8
20260506035558 69 166 1.0 5.0 0.00 0.00 0.00 53 1013.7
20260506035047 69 113 2.0 4.0 0.00 0.00 0.00 53 1014.0
20260506033603 69 163 0.0 2.0 0.00 0.00 0.00 55 1014.2
20260506033052 69 163 0.0 2.0 0.00 0.00 0.00 54 1014.1
20260506032557 69 163 0.0 3.0 0.00 0.00 0.00 55 1014.2
20260506032047 69 163 1.0 3.0 0.00 0.00 0.00 54 1014.2
20260506031103 69 158 0.0 0.0 0.00 0.00 0.00 54 1014.0
20260506030549 69 157 0.0 0.0 0.00 0.00 0.00 53 1014.1
20260506030503 69 158 0.0 0.0 0.00 0.00 0.00 53 1013.2
20260506030129 69 158 0.0 1.0 0.00 0.00 0.00 53 1014.0
20260506030023 69 158 0.0 1.0 0.00 0.00 0.00 53 1013.1
20260506025547 70 158 0.0 1.0 0.00 0.00 0.00 52 1014.0
20260506025059 70 157 0.0 1.0 0.00 0.00 0.00 52 1014.1
20260506024553 70 158 1.0 2.0 0.00 0.00 0.00 51 1014.0
20260506023551 70 211 1.0 3.0 0.00 0.00 0.00 52 1014.0
20260506023100 70 158 1.0 4.0 0.00 0.00 0.00 51 1014.0
20260506022546 70 158 1.0 4.0 0.00 0.00 0.00 52 1014.0
20260506022054 70 186 1.0 4.0 0.00 0.00 0.00 51 1014.1
20260506021603 70 192 1.0 3.0 0.00 0.00 0.00 51 1014.1
20260506021052 70 180 1.0 4.0 0.00 0.00 0.00 51 1014.1
20260506020557 71 153 1.0 4.0 0.00 0.00 0.00 51 1013.9
20260506020047 71 169 1.0 4.0 0.00 0.00 0.00 51 1014.0
20260506015104 71 155 0.0 3.0 0.00 0.00 0.00 51 1013.9
20260506014549 71 155 1.0 3.0 0.00 0.00 0.00 51 1013.7
20260506014058 71 144 1.0 3.0 0.00 0.00 0.00 52 1013.8
20260506013546 70 188 0.0 0.0 0.00 0.00 0.00 52 1013.9
20260506013055 70 188 0.0 0.0 0.00 0.00 0.00 53 1013.9
20260506012559 70 188 0.0 0.0 0.00 0.00 0.00 53 1013.9
20260506012045 71 188 0.0 0.0 0.00 0.00 0.00 53 1013.8
20260506011557 71 188 0.0 0.0 0.00 0.00 0.00 52 1013.7
20260506011103 71 188 0.0 0.0 0.00 0.00 0.00 52 1013.6
20260506010551 71 188 0.0 0.0 0.00 0.00 0.00 51 1013.7
20260506010054 72 188 0.0 0.0 0.00 0.00 0.00 51 1013.7
20260506005600 72 188 0.0 0.0 0.00 0.00 0.00 51 1013.8
20260506005049 72 188 0.0 0.0 0.00 0.00 0.00 50 1013.8
20260506004050 73 188 0.0 0.0 0.00 0.00 0.00 49 1013.9
20260506003106 74 188 0.0 2.0 0.00 0.00 0.00 47 1013.9
20260506002547 74 188 0.0 3.0 0.00 0.00 0.00 46 1013.8
20260506000555 75 162 2.0 5.0 0.00 0.00 0.00 44 1013.7
20260505235550 75 146 3.0 5.0 0.00 0.00 0.00 44 1013.5
20260505234552 76 199 2.0 7.0 0.00 0.00 0.00 44 1013.6
20260505234103 76 183 1.0 3.0 0.00 0.00 0.00 43 1013.7
20260505233550 76 154 1.0 6.0 0.00 0.00 0.00 43 1013.7
20260505233059 76 178 2.0 6.0 0.00 0.00 0.00 43 1013.7
20260505232603 76 161 2.0 5.0 0.00 0.00 0.00 43 1013.7
20260505232051 77 165 1.0 8.0 0.00 0.00 0.00 43 1013.5
20260505231557 77 197 4.0 9.0 0.00 0.00 0.00 42 1013.5
20260505231048 77 245 4.0 9.0 0.00 0.00 0.00 42 1013.3
20260505230555 77 184 3.0 7.0 0.00 0.00 0.00 41 1013.4
20260505230106 77 199 2.0 8.0 0.00 0.00 0.00 40 1013.3
20260505225551 78 199 4.0 8.0 0.00 0.00 0.00 40 1013.4
20260505225041 78 231 3.0 8.0 0.00 0.00 0.00 40 1013.3
20260505224554 78 172 3.0 8.0 0.00 0.00 0.00 40 1013.3
20260505224041 78 158 3.0 8.0 0.00 0.00 0.00 39 1013.3
20260505223551 78 216 4.0 8.0 0.00 0.00 0.00 39 1013.3
20260505222551 78 164 4.0 13.0 0.00 0.00 0.00 40 1013.1
20260505222058 78 188 5.0 13.0 0.00 0.00 0.00 40 1013.1
20260505221548 79 187 3.0 9.0 0.00 0.00 0.00 40 1013.1
20260505221058 79 117 5.0 8.0 0.00 0.00 0.00 39 1013.1
20260505220547 79 205 3.0 8.0 0.00 0.00 0.00 39 1013.0
20260505220056 79 65 4.0 8.0 0.00 0.00 0.00 37 1013.1
20260505215054 79 160 3.0 9.0 0.00 0.00 0.00 38 1013.2
20260505214602 79 203 3.0 10.0 0.00 0.00 0.00 39 1013.3
20260505214051 79 86 3.0 6.0 0.00 0.00 0.00 38 1013.3
20260505213558 79 157 2.0 8.0 0.00 0.00 0.00 38 1013.4
20260505213102 79 165 3.0 10.0 0.00 0.00 0.00 38 1013.2
20260505212102 79 156 3.0 7.0 0.00 0.00 0.00 40 1013.2
20260505211550 79 177 3.0 9.0 0.00 0.00 0.00 41 1013.4
20260505211057 79 139 5.0 9.0 0.00 0.00 0.00 41 1013.5
20260505210548 79 204 3.0 9.0 0.00 0.00 0.00 40 1013.4
20260505210125 79 129 2.0 9.0 0.00 0.00 0.00 40 1013.4
20260505210018 78 106 1.0 9.0 0.00 0.00 0.00 40 1012.5
20260505205547 79 174 4.0 8.0 0.00 0.00 0.00 41 1013.5
20260505205056 79 174 3.0 6.0 0.00 0.00 0.00 40 1013.5
20260505204544 79 176 2.0 10.0 0.00 0.00 0.00 41 1013.7
20260505204056 79 155 2.0 10.0 0.00 0.00 0.00 41 1013.8
20260505203052 79 162 4.0 8.0 0.00 0.00 0.00 42 1014.0
20260505202556 79 198 5.0 10.0 0.00 0.00 0.00 41 1014.0
20260505202047 78 181 3.0 12.0 0.00 0.00 0.00 40 1014.0
20260505201555 78 259 5.0 12.0 0.00 0.00 0.00 41 1014.1
20260505201101 78 215 4.0 8.0 0.00 0.00 0.00 41 1014.1
20260505200547 78 169 3.0 7.0 0.00 0.00 0.00 41 1014.1
20260505200057 78 169 3.0 10.0 0.00 0.00 0.00 41 1014.2
20260505195601 78 206 5.0 10.0 0.00 0.00 0.00 40 1014.3
20260505195050 78 165 3.0 12.0 0.00 0.00 0.00 40 1014.4
20260505194602 78 195 4.0 12.0 0.00 0.00 0.00 40 1014.6
20260505194054 78 248 4.0 8.0 0.00 0.00 0.00 44 1014.6
20260505193600 77 151 3.0 9.0 0.00 0.00 0.00 43 1014.6
20260505193050 78 156 5.0 9.0 0.00 0.00 0.00 43 1014.6
20260505192554 78 183 3.0 9.0 0.00 0.00 0.00 42 1014.6
20260505191551 78 228 4.0 7.0 0.00 0.00 0.00 43 1014.7
20260505191058 78 198 1.0 9.0 0.00 0.00 0.00 44 1014.6
20260505190606 77 182 3.0 9.0 0.00 0.00 0.00 44 1014.9
20260505190047 78 127 4.0 9.0 0.00 0.00 0.00 42 1015.0
20260505185554 77 181 3.0 8.0 0.00 0.00 0.00 44 1014.9
20260505185103 77 78 2.0 8.0 0.00 0.00 0.00 45 1015.1
20260505184103 76 236 3.0 10.0 0.00 0.00 0.00 45 1015.2
20260505183552 76 190 1.0 8.0 0.00 0.00 0.00 46 1015.2
20260505182055 77 263 3.0 10.0 0.00 0.00 0.00 43 1015.4
20260505181606 77 184 4.0 10.0 0.00 0.00 0.00 45 1015.6
20260505181502 77 203 3.0 10.0 0.00 0.00 0.00 45 1014.8
20260505180602 77 175 5.0 9.0 0.00 0.00 0.00 44 1015.9
20260505180050 76 173 4.0 9.0 0.00 0.00 0.00 44 1015.9
20260505175550 76 203 3.0 9.0 0.00 0.00 0.00 45 1016.1
20260505175059 76 227 4.0 9.0 0.00 0.00 0.00 45 1016.2
20260505174547 76 139 4.0 8.0 0.00 0.00 0.00 46 1016.3
20260505174058 76 170 3.0 8.0 0.00 0.00 0.00 45 1016.4
20260505173548 76 112 5.0 9.0 0.00 0.00 0.00 44 1016.3
20260505173058 76 198 4.0 11.0 0.00 0.00 0.00 45 1016.3
20260505172544 76 212 5.0 11.0 0.00 0.00 0.00 43 1016.3
20260505171604 75 210 5.0 10.0 0.00 0.00 0.00 45 1016.3
20260505171055 75 240 3.0 11.0 0.00 0.00 0.00 48 1016.3
20260505170600 75 165 5.0 11.0 0.00 0.00 0.00 45 1016.4
20260505170119 76 117 4.0 11.0 0.00 0.00 0.00 47 1016.5
20260505165601 76 202 4.0 12.0 0.00 0.00 0.00 48 1016.5
20260505165053 76 236 4.0 12.0 0.00 0.00 0.00 47 1016.4
20260505164544 76 225 4.0 10.0 0.00 0.00 0.00 47 1016.4
20260505164052 75 186 2.0 11.0 0.00 0.00 0.00 49 1016.4
20260505163544 75 171 3.0 13.0 0.00 0.00 0.00 47 1016.4
20260505163055 74 237 4.0 13.0 0.00 0.00 0.00 48 1016.5
20260505162601 74 217 4.0 11.0 0.00 0.00 0.00 49 1016.4
20260505162050 74 185 3.0 9.0 0.00 0.00 0.00 50 1016.5
20260505161055 74 115 5.0 10.0 0.00 0.00 0.00 48 1016.6
20260505160549 74 113 4.0 8.0 0.00 0.00 0.00 52 1016.6
20260505153059 72 158 4.0 10.0 0.00 0.00 0.00 53 1017.1
20260505152546 73 224 5.0 8.0 0.00 0.00 0.00 56 1017.0
20260505151544 72 88 2.0 8.0 0.00 0.00 0.00 57 1016.9
20260505151054 72 151 3.0 9.0 0.00 0.00 0.00 57 1016.9
20260505150544 71 207 4.0 9.0 0.00 0.00 0.00 58 1016.9
20260505124602 57 30 0.0 1.0 0.00 0.00 0.00 84 1015.8
20260505123600 56 30 0.0 0.0 0.00 0.00 0.00 84 1015.6
20260505123104 56 30 0.0 0.0 0.00 0.00 0.00 85 1015.6
20260505122552 56 30 0.0 0.0 0.00 0.00 0.00 85 1015.6
20260505122103 55 30 0.0 1.0 0.00 0.00 0.00 85 1015.6
20260505121550 55 30 0.0 1.0 0.00 0.00 0.00 85 1015.8
20260505121057 54 149 0.0 1.0 0.00 0.00 0.00 86 1015.8
20260505120543 54 149 0.0 0.0 0.00 0.00 0.00 86 1015.7
20260505120053 53 149 0.0 0.0 0.00 0.00 0.00 86 1015.5
20260505115555 53 149 0.0 0.0 0.00 0.00 0.00 86 1015.5
20260505115102 53 149 0.0 0.0 0.00 0.00 0.00 86 1015.4
20260505114550 52 149 0.0 0.0 0.00 0.00 0.00 86 1015.2
20260505114059 52 149 0.0 0.0 0.00 0.00 0.00 86 1015.1
20260505113103 52 149 0.0 0.0 0.00 0.00 0.00 86 1015.1
20260505112550 51 149 0.0 0.0 0.00 0.00 0.00 86 1015.1
20260505111546 51 149 0.0 0.0 0.00 0.00 0.00 86 1015.2
20260505111057 51 149 0.0 1.0 0.00 0.00 0.00 87 1015.1
20260505110603 51 149 0.0 1.0 0.00 0.00 0.00 87 1015.1
20260505110517 50 149 0.0 1.0 0.00 0.00 0.00 87 1014.5
20260505110123 50 149 0.0 0.0 0.00 0.00 0.00 87 1015.2
20260505102056 51 149 0.0 1.0 0.00 0.00 0.00 85 1015.1
20260505101549 51 149 0.0 0.0 0.00 0.00 0.00 84 1015.0
20260505101059 51 149 0.0 0.0 0.00 0.00 0.00 84 1015.0
20260505100549 51 149 0.0 2.0 0.00 0.00 0.00 84 1015.1
20260505095547 51 149 1.0 2.0 0.00 0.00 0.00 84 1014.9
20260505095058 51 149 0.0 2.0 0.00 0.00 0.00 84 1014.9
20260505093549 52 149 0.0 2.0 0.00 0.00 0.00 83 1014.9
20260505092602 52 149 0.0 1.0 0.00 0.00 0.00 82 1015.1
20260505092051 52 149 0.0 2.0 0.00 0.00 0.00 82 1015.2
20260505091558 52 149 0.0 2.0 0.00 0.00 0.00 82 1015.2
20260505090601 53 149 0.0 2.0 0.00 0.00 0.00 81 1015.3
20260505090051 53 149 0.0 2.0 0.00 0.00 0.00 80 1015.4
20260505085558 53 149 0.0 1.0 0.00 0.00 0.00 81 1015.4
20260505085047 53 149 0.0 1.0 0.00 0.00 0.00 80 1015.4
20260505084556 53 149 0.0 1.0 0.00 0.00 0.00 79 1015.5
20260505084103 54 149 0.0 2.0 0.00 0.00 0.00 79 1015.4
20260505082553 54 149 1.0 2.0 0.00 0.00 0.00 79 1015.3
20260505082101 54 149 0.0 2.0 0.00 0.00 0.00 78 1015.2
20260505081102 54 149 0.0 3.0 0.00 0.00 0.00 78 1015.2
20260505080553 54 150 0.0 3.0 0.00 0.00 0.00 79 1015.3